Location: Rock Island IL
(41.5000°N, 90.5500°W)
Time: 02:57:16
(UTC-06:00)

Daily predictions for brighter satellites

Satellite Brightness Start Highest point End
(mag) Time Altitude Azimuth Time Altitude Azimuth Time Altitude Azimuth
Cosmos 1943 Rocket 4.2 03:10:09 22° E 03:10:09 22° E 03:13:13 10° NE
Lacrosse 5 4.2 03:19:12 20° ENE 03:19:12 20° ENE 03:21:02 10° ENE
USA 234 4.2 03:20:16 10° ENE 03:26:04 39° ESE 03:26:04 39° ESE
ADEOS II 3.3 03:36:51 10° NNE 03:40:44 40° ENE 03:40:44 40° ENE
Cosmos 407 Rocket 4.3 03:54:00 48° E 03:54:00 48° E 03:58:28 10° SE
CZ-4B DEB 4.4 03:57:43 10° NNE 04:02:34 67° NE 04:02:34 67° NE
CZ-4C R/B 3.4 04:06:47 29° SSE 04:08:31 36° ESE 04:13:44 10° NE
Cosmos 2369 Rocket 3.1 04:10:53 37° N 04:10:53 37° N 04:14:31 10° NNE
Cosmos 1703 Rocket 4.2 04:22:54 46° SE 04:23:40 53° E 04:27:56 10° NNE
GEOS 3 Rocket 3.5 04:21:53 10° SSE 04:26:26 67° S 04:26:26 67° S
Cosmos 1833 4.0 04:31:26 36° NNW 04:33:50 81° WSW 04:39:25 10° SSE
Okean O Rocket 3.8 04:34:19 10° N 04:35:07 14° NNW 04:35:07 14° NNW
ATLAS CENTAUR R/B 3.7 04:37:26 44° W 04:38:59 51° SW 04:54:24 10° SSE
Cosmos 2056 Rocket 4.1 04:40:01 39° NW 04:40:01 39° NW 04:44:00 10° N
ERS-2 4.1 04:38:49 10° N 04:40:04 20° N 04:40:04 20° N
Meteor 2-10 Rocket 3.4 04:40:23 20° S 04:43:50 85° E 04:48:55 10° N
CZ-4B R/B 4.0 04:40:38 10° NNE 04:44:38 75° ESE 04:46:30 32° S
ATLAS 5 CENTAUR R/B 2.5 04:46:07 39° NW 04:46:07 39° NW 04:50:45 10° NNE
Cosmos 1954 Rocket 4.0 04:42:31 10° NNW 04:47:51 87° ENE 04:53:11 10° SSE
COSMO-SKYMED 1 3.8 04:46:42 10° SE 04:50:47 43° ENE 04:54:54 10° N
Cosmos 1943 Rocket 2.4 04:51:43 44° WNW 04:52:14 45° WNW 04:57:34 10° NNE
Lacrosse 5 rocket 3.6 04:52:40 11° N 04:54:38 15° NNE 04:56:48 10° ENE
Cosmos 1420 Rocket 4.3 04:49:41 10° S 04:54:47 65° ESE 04:59:56 10° NNE
Cosmos 2221 Rocket 3.5 04:52:10 13° S 04:56:13 84° W 05:00:48 10° N
NOAA 6 4.4 04:51:32 10° NNE 04:56:41 65° ESE 05:01:46 10° S
CZ-4B R/B 3.8 04:53:18 10° N 04:58:23 36° WNW 04:58:43 36° WNW
Lacrosse 5 2.3 04:58:26 40° WNW 04:59:21 45° NW 05:04:14 10° NE
USA 234 3.3 05:03:04 10° NE 05:09:30 63° NW 05:13:26 25° WSW
Okean 1-7 2.9 05:08:07 10° SSW 05:12:21 65° W 05:16:37 10° N
Abrixas 4.2 05:12:25 21° N 05:12:30 21° N 05:14:47 10° NE
Thor Agena Rocket 3.5 05:07:28 10° S 05:12:37 59° WSW 05:17:43 10° NNW
Cosmos 1782 3.2 05:11:27 10° S 05:15:21 66° E 05:19:19 10° NNE
Meteor 1-14 Rocket 4.2 05:10:21 10° NNW 05:16:04 59° W 05:21:37 10° S
Cosmos 1452 Rocket 3.8 05:16:58 21° SW 05:20:16 46° WNW 05:25:22 10° N
SKYMED 3 4.5 05:16:25 10° SSE 05:20:45 88° W 05:25:06 10° NNW
ADEOS II 3.2 05:17:16 10° NNW 05:21:19 23° WNW 05:21:41 23° WNW
Cosmos 1023 Rocket 4.5 05:17:20 10° NNW 05:22:30 60° WSW 05:27:40 10° S
Cosmos 1606 3.3 05:19:38 10° S 05:23:26 61° E 05:27:18 10° NNE
Cosmos 1745 Rocket 3.9 05:20:54 10° N 05:27:02 76° W 05:33:08 10° S
Cosmos 1782 Rocket 4.0 05:23:02 10° NNW 05:27:11 38° W 05:31:16 10° SSW
Cosmos 1386 Rocket 4.4 05:25:24 10° N 05:31:29 89° ENE 05:37:37 10° S
Cosmos 1741 Rocket 3.9 05:26:42 10° NNW 05:31:57 82° WSW 05:37:12 10° SSE
Tiangong 1 0.8 05:31:47 33° W 05:32:55 78° N 05:35:52 10° ENE
ATLAS 3B R/B 3.2 05:26:21 10° SSW 05:33:52 69° ESE 05:41:09 10° NE
Okean-O 3.4 05:30:32 10° N 05:34:23 30° WNW 05:37:28 14° WSW
Meteor 2-6 Rocket 4.3 05:29:46 10° S 05:35:08 79° E 05:40:34 10° NNE
Cosmos 2297 Rocket 3.8 05:30:34 10° N 05:35:43 34° ENE 05:40:49 10° ESE
SKYMED 2 3.6 05:34:33 10° S 05:38:48 55° W 05:43:05 10° NNW
Meteor 1-31 Rocket 4.0 05:37:49 10° NNW 05:40:50 22° WNW 05:42:09 18° W
Meteor 1-25 Rocket 4.5 05:36:49 10° NNW 05:42:26 50° W 05:48:02 10° SSW
Cosmos 2219 3.5 05:44:59 10° NW 05:50:22 45° WSW 05:55:41 10° S
USA 81 4.1 05:45:50 10° SSW 05:51:00 57° W 05:56:13 10° N
Cosmos 1674 Rocket 3.7 05:48:25 10° S 05:52:49 81° E 05:57:16 10° N
Okean 2 Rocket 3.9 05:49:11 10° NNW 05:52:54 27° W 05:56:35 10° SSW
Cosmos 1140 Rocket 4.2 05:48:32 10° NW 05:53:07 31° W 05:57:41 10° SSW
CZ-4 R/B 2.9 05:51:47 10° NNE 05:55:46 42° E 05:59:39 10° S
Cosmos 2227 Rocket 2.7 05:50:18 10° NNW 05:55:57 63° ENE 06:01:34 10° SE
Cosmos 1656 Rocket 4.5 05:51:48 10° WSW 05:56:49 31° WNW 06:01:50 10° N
CZ-4C R/B 2.8 05:52:01 10° WSW 05:56:56 37° NW 06:02:33 10° NNE
COSMOS 2455 4.4 05:55:11 10° S 06:00:44 40° ESE 06:06:18 10° NE
CZ-2C R/B 3.2 05:56:28 10° NNE 06:01:19 57° E 06:06:17 10° S
Meteor 1-11 Rocket 3.9 05:58:02 10° N 06:04:01 89° ENE 06:09:54 10° S
Meteor 1-10 Rocket 4.4 06:01:14 10° SSW 06:06:37 49° WNW 06:12:05 10° N
Okean 1 Rocket 3.2 06:07:29 10° N 06:11:56 80° E 06:16:18 10° S
Cosmos 1607 3.9 06:06:08 10° SW 06:12:13 68° NW 06:18:24 10° NNE
Cosmos 2151 Rocket 4.2 06:08:13 10° NNW 06:12:22 36° W 06:16:27 10° SSW
BREEZE M DEB (TANK) 4.1 06:16:32 10° WNW 06:26:29 38° N 06:30:02 10° ENE
